This demonstration page uses our WeatherBlox Daily Observations layout. Learn more.

36.17497, -115.13722

Hourly Observations for March 13, 2018

Temp ( °F °C ) Dew Point ( °F °C ) Humidity (%) Winds ( mph kmh ) Pressure ( in mb ) Visibility ( mi km ) Precip ( " mm )
12:53 am 00:53 Clear 57 13.9 47 8.3 69 69 NNW 3 6 30.05 1018 10 16.0934 0 0
1:53 am 01:53 Clear 56 13.3 47 8.3 72 72 W 3 6 30.05 1018 10 16.0934 0 0
2:53 am 02:53 Clear 55 12.8 46 7.8 72 72 NNW 3 6 30.04 1017 10 16.0934 0 0
3:53 am 03:53 Clear 55 12.8 45 7.2 69 69 NW 3 6 30.04 1017 10 16.0934 0 0
4:53 am 04:53 Clear 55 12.8 44 6.7 67 67 Calm 30.04 1017 10 16.0934 0 0
5:53 am 05:53 Clear 52 11.1 44 6.7 75 75 NNW 6 9 30.05 1018 10 16.0934 0 0
6:53 am 06:53 Clear 54 12.2 43 6.1 67 67 Calm 30.05 1018 10 16.0934 0 0
7:53 am 07:53 Sunny 54 12.2 44 6.7 69 69 NNW 3 6 30.06 1018 10 16.0934 0 0
8:53 am 08:53 Sunny 58 14.4 44 6.7 60 60 W 3 6 30.06 1018 10 16.0934 0 0
9:53 am 09:53 Sunny 62 16.7 45 7.2 54 54 SE 7 11 30.08 1019 10 16.0934 0 0
10:53 am 10:53 Cloudy 63 17.2 45 7.2 52 52 SE 6 9 30.08 1019 10 16.0934 0 0
11:53 am 11:53 Sunny 66 18.9 46 7.8 49 49 ESE 9 15 30.06 1018 10 16.0934 0 0
12:53 pm 12:53 Sunny 69 20.6 45 7.2 42 42 SE 10 17 30.02 1017 10 16.0934 0 0
1:53 pm 13:53 Sunny 73 22.8 44 6.7 35 35 SE 13 20 29.98 1015 10 16.0934 0 0
2:53 pm 14:53 Sunny 74 23.3 44 6.7 34 34 SE 10 17 29.94 1014 10 16.0934 0 0
3:53 pm 15:53 Sunny 74 23.3 44 6.7 34 34 SE 12 19 29.91 1013 10 16.0934 0 0
4:53 pm 16:53 Mostly Cloudy 74 23.3 45 7.2 36 36 ESE 12 19 29.91 1013 10 16.0934 0 0
5:53 pm 17:53 Cloudy 75 23.9 43 6.1 32 32 SE 13 20 29.89 1012 10 16.0934 0 0
6:53 pm 18:53 Clear 73 22.8 43 6.1 34 34 SSW 8 13 29.89 1012 10 16.0934 0 0
7:53 pm 19:53 Partly Cloudy 72 22.2 42 5.6 34 34 SSW 10 17 29.89 1012 10 16.0934 0 0
8:53 pm 20:53 Cloudy 71 21.7 44 6.7 38 38 S 9 15 29.89 1012 10 16.0934 0 0
9:53 pm 21:53 Cloudy 70 21.1 46 7.8 42 42 WNW 8 13 29.91 1013 10 16.0934 0 0
10:53 pm 22:53 Cloudy 69 20.6 47 8.3 45 45 W 3 6 29.91 1013 10 16.0934 0 0
11:53 pm 23:53 Mostly Cloudy 68 20 47 8.3 47 47 NE 6 9 29.89 1012 10 16.0934 0 0

Powered by AerisWeather